Regional Weather Roundup
Issued by NWS

Home | Current Version | Previous Version | Text Only | Print | Product List | Glossary On
Versions: 1 2 3 4 5 6 7 8 9 10 11 12 13 14 15 16 17 18 19 20 21 22 23 24 25 26 27 28 29 30 31 32 33 34 35 36 37 38 39 40 41 42 43 44 45 46 47 48 49 50
000
ASUS43 KTOP 181708
RWRKS

WEATHER ROUNDUP FOR KANSAS
NATIONAL WEATHER SERVICE GOODLAND KS
1200 PM CDT SAT APR 18 2015

NOTE:  "FAIR" INDICATES FEW OR NO CLOUDS BELOW 12,000 FEET WITH NO
SIGNIFICANT WEATHER AND/OR OBSTRUCTIONS TO VISIBILITY.

KSZ001>006-013>018-027>032-041>047-181800-
NORTHWEST KANSAS

CITY           SKY/WX    TMP DP  RH WIND       PRES   REMARKS
GOODLAND       CLOUDY    52  49  89 E14       29.90F
HAYS           PTSUNNY   63  50  63 SE9       29.89F
HILL CITY      MOSUNNY   62  53  72 SE7       29.90F
RUSSELL        MOSUNNY   68  56  65 S7        29.87F
$$

KSZ061>065-074>080-084>089-181800-
SOUTHWEST KANSAS

CITY           SKY/WX    TMP DP  RH WIND       PRES   REMARKS
DODGE CITY     MOSUNNY   65  49  56 SW7       29.88S
ELKHART          N/A    N/A N/A N/A MISG        N/A
GARDEN CITY    SUNNY     59  42  53 VRB3      29.87F
GREAT BEND     MOSUNNY   66  57  72 S10       29.88F
LIBERAL        SUNNY     61  43  51 W6G16     29.90F
PRATT          PTSUNNY   70  54  56 S9G16     29.89F
$$

KSZ066>073-081>083-090>101-181800-
SOUTHEAST KANSAS

CITY           SKY/WX    TMP DP  RH WIND       PRES   REMARKS
CHANUTE        LGT RAIN  61  58  90 SE8       29.96S
COFFEYVILLE    LGT RAIN  62  60  93 NE10      29.93F
HUTCHINSON     MOSUNNY   71  59  65 SE16G23   29.89F
MEDICINE LODGE   N/A     69  59  70 S13G18    29.89F
NEWTON         CLOUDY    61  54  77 S9        29.93F
PARSONS        LGT RAIN  62  61  96 NE3       29.96F
WICHITA INTL   CLOUDY    67  58  72 SE8       29.91F
WICHITA JABRA  CLOUDY    66  60  81 SE6       29.92F
WICHITA MCCONL PTSUNNY   65  61  84 E8        29.92F
WINFIELD       CLOUDY    66  62  87 MISG      29.94S
$$

KSZ007>012-019>026-033>040-048>060-102>105-181800-
NORTHEAST KANSAS

CITY           SKY/WX    TMP DP  RH WIND       PRES   REMARKS
CONCORDIA      CLOUDY    65  59  81 SE7       29.89F
EMPORIA        LGT RAIN  61  58  90 SE6       29.92F
LAWRENCE       LGT RAIN  63  58  83 NE6       29.92F
MANHATTAN      CLOUDY    64  61  90 SE7       29.90F
MARYSVILLE     CLOUDY    64  59  82 S8        29.89F
OLATHE IND     CLOUDY    62  59  90 N6        29.94S
OLATHE EXE     CLOUDY    62  60  93 NW6       29.93S
SALINA         CLOUDY    68  61  78 S9        29.89F
TOPEKA BILLARD LGT RAIN  62  59  90 NW5       29.92F
TOPEKA FORBES  LGT RAIN  63  58  83 CALM      29.92F
$$


USA.gov is the U.S. government's official web portal to all federal, state and local government web resources and services.